Time,TemperatureF,DewpointF,PressureIn,WindDirection,WindDirectionDegrees,WindSpeedMPH,WindSpeedGustMPH,Humidity,HourlyPrecipIn,Conditions,Clouds,dailyrainin,SoftwareType,DateUTC
2013-02-23 00:01:00,34.7,28.5,30.17,ENE,77,0.0,0.0,78,0.00,,,0.00,Wunderground v.1.15,2013-02-23 05:01:00,
2013-02-23 00:06:00,34.7,28.5,30.17,ENE,77,0.0,0.0,78,0.00,,,0.00,Wunderground v.1.15,2013-02-23 05:06:00,
2013-02-23 00:11:00,34.7,28.9,30.17,ENE,77,0.0,0.0,79,0.00,,,0.00,Wunderground v.1.15,2013-02-23 05:11:00,
2013-02-23 00:16:00,34.7,28.9,30.16,ENE,77,0.0,0.0,79,0.00,,,0.00,Wunderground v.1.15,2013-02-23 05:16:00,
2013-02-23 00:21:00,34.7,28.9,30.16,ENE,77,0.0,0.0,79,0.00,,,0.00,Wunderground v.1.15,2013-02-23 05:21:00,
2013-02-23 00:31:00,34.9,29.0,30.17,ENE,77,0.0,0.0,79,0.00,,,0.00,Wunderground v.1.15,2013-02-23 05:31:00,
2013-02-23 00:36:00,34.9,29.4,30.17,ENE,77,0.0,0.0,80,0.00,,,0.00,Wunderground v.1.15,2013-02-23 05:36:00,
2013-02-23 00:41:00,34.9,29.4,30.17,ENE,77,0.0,0.0,80,0.00,,,0.00,Wunderground v.1.15,2013-02-23 05:41:00,
2013-02-23 00:46:00,35.0,29.5,30.17,ENE,77,0.0,0.0,80,0.00,,,0.00,Wunderground v.1.15,2013-02-23 05:46:00,
2013-02-23 00:51:00,35.0,29.5,30.17,ENE,77,0.0,0.0,80,0.00,,,0.00,Wunderground v.1.15,2013-02-23 05:51:00,
2013-02-23 00:56:00,35.0,29.5,30.17,ENE,77,0.0,0.0,80,0.00,,,0.00,Wunderground v.1.15,2013-02-23 05:56:00,
2013-02-23 01:01:00,35.2,29.6,30.15,ENE,77,0.0,0.0,80,0.00,,,0.00,Wunderground v.1.15,2013-02-23 06:01:00,
2013-02-23 01:11:00,35.2,30.0,30.15,ENE,77,0.0,0.0,81,0.00,,,0.00,Wunderground v.1.15,2013-02-23 06:11:00,
2013-02-23 01:16:00,35.2,30.0,30.14,ENE,77,0.0,0.0,81,0.00,,,0.00,Wunderground v.1.15,2013-02-23 06:16:00,
2013-02-23 01:21:00,35.3,30.1,30.14,ENE,77,0.0,0.0,81,0.00,,,0.00,Wunderground v.1.15,2013-02-23 06:21:00,
2013-02-23 01:26:00,35.3,30.4,30.14,ENE,77,0.0,0.0,82,0.00,,,0.00,Wunderground v.1.15,2013-02-23 06:26:00,
2013-02-23 01:31:00,35.3,30.4,30.14,ENE,77,0.0,0.0,82,0.00,,,0.00,Wunderground v.1.15,2013-02-23 06:31:00,
2013-02-23 01:41:00,35.3,30.4,30.14,ENE,77,0.0,0.0,82,0.00,,,0.00,Wunderground v.1.15,2013-02-23 06:41:00,
2013-02-23 01:46:00,35.3,30.7,30.14,ENE,77,0.0,0.0,83,0.00,,,0.00,Wunderground v.1.15,2013-02-23 06:46:00,
2013-02-23 01:51:00,35.3,30.7,30.14,ENE,77,0.0,0.0,83,0.00,,,0.00,Wunderground v.1.15,2013-02-23 06:51:00,
2013-02-23 01:56:00,35.2,30.6,30.14,ENE,77,0.0,0.0,83,0.00,,,0.00,Wunderground v.1.15,2013-02-23 06:56:00,
2013-02-23 02:01:00,35.2,30.9,30.13,ENE,71,1.0,1.0,84,0.00,,,0.00,Wunderground v.1.15,2013-02-23 07:01:00,
2013-02-23 02:11:00,35.2,30.9,30.13,East,96,0.0,2.0,84,0.00,,,0.00,Wunderground v.1.15,2013-02-23 07:11:00,
2013-02-23 02:16:00,35.2,30.9,30.11,East,92,1.0,2.0,84,0.00,,,0.00,Wunderground v.1.15,2013-02-23 07:16:00,
2013-02-23 02:21:00,35.0,30.7,30.11,East,92,1.0,1.0,84,0.00,,,0.00,Wunderground v.1.15,2013-02-23 07:21:00,
2013-02-23 02:26:00,35.0,30.7,30.11,East,92,0.0,2.0,84,0.00,,,0.00,Wunderground v.1.15,2013-02-23 07:26:00,
2013-02-23 02:31:00,35.0,30.7,30.11,East,92,0.0,0.0,84,0.00,,,0.00,Wunderground v.1.15,2013-02-23 07:31:00,
2013-02-23 02:36:00,35.0,30.9,30.11,East,92,0.0,0.0,85,0.00,,,0.00,Wunderground v.1.15,2013-02-23 07:36:00,
2013-02-23 02:41:00,35.0,30.9,30.11,East,92,0.0,0.0,85,0.00,,,0.00,Wunderground v.1.15,2013-02-23 07:41:00,
2013-02-23 02:51:00,35.0,30.9,30.10,East,92,0.0,0.0,85,0.00,,,0.00,Wunderground v.1.15,2013-02-23 07:51:00,
2013-02-23 02:56:00,35.2,31.4,30.10,East,92,0.0,0.0,86,0.00,,,0.00,Wunderground v.1.15,2013-02-23 07:56:00,
2013-02-23 03:01:00,35.2,31.4,30.09,East,92,0.0,0.0,86,0.00,,,0.00,Wunderground v.1.15,2013-02-23 08:01:00,
2013-02-23 03:06:00,35.2,31.4,30.09,East,92,0.0,0.0,86,0.00,,,0.00,Wunderground v.1.15,2013-02-23 08:06:00,
2013-02-23 03:11:00,35.2,31.4,30.09,East,92,0.0,0.0,86,0.00,,,0.00,Wunderground v.1.15,2013-02-23 08:11:00,
2013-02-23 03:16:00,35.2,31.4,30.09,East,92,0.0,0.0,86,0.00,,,0.00,Wunderground v.1.15,2013-02-23 08:16:00,
2013-02-23 03:21:00,35.2,31.4,30.09,East,92,0.0,1.0,86,0.00,,,0.00,Wunderground v.1.15,2013-02-23 08:21:00,
2013-02-23 03:31:00,35.3,31.8,30.08,East,92,0.0,0.0,87,0.00,,,0.00,Wunderground v.1.15,2013-02-23 08:31:00,
2013-02-23 03:36:00,35.3,31.8,30.08,East,92,0.0,0.0,87,0.00,,,0.00,Wunderground v.1.15,2013-02-23 08:36:00,
2013-02-23 03:41:00,35.3,31.8,30.08,East,92,0.0,0.0,87,0.00,,,0.00,Wunderground v.1.15,2013-02-23 08:41:00,
2013-02-23 03:46:00,35.5,32.0,30.08,East,92,0.0,1.0,87,0.00,,,0.00,Wunderground v.1.15,2013-02-23 08:46:00,
2013-02-23 03:51:00,35.5,32.0,30.08,East,92,1.0,1.0,87,0.00,,,0.00,Wunderground v.1.15,2013-02-23 08:51:00,
2013-02-23 03:56:00,35.6,32.1,30.08,East,92,0.0,1.0,87,0.00,,,0.00,Wunderground v.1.15,2013-02-23 08:56:00,
2013-02-23 04:01:00,35.6,32.1,30.07,East,92,0.0,0.0,87,0.00,,,0.00,Wunderground v.1.15,2013-02-23 09:01:00,
2013-02-23 04:11:00,35.6,32.4,30.07,East,92,0.0,0.0,88,0.00,,,0.00,Wunderground v.1.15,2013-02-23 09:11:00,
2013-02-23 04:16:00,35.6,32.4,30.07,East,92,0.0,0.0,88,0.00,,,0.00,Wunderground v.1.15,2013-02-23 09:16:00,
2013-02-23 04:21:00,35.8,32.6,30.07,ENE,74,0.0,0.0,88,0.00,,,0.00,Wunderground v.1.15,2013-02-23 09:21:00,
2013-02-23 04:26:00,35.8,32.6,30.07,ENE,74,0.0,0.0,88,0.00,,,0.00,Wunderground v.1.15,2013-02-23 09:26:00,
2013-02-23 04:31:00,35.9,32.7,30.06,ENE,74,0.0,0.0,88,0.00,,,0.00,Wunderground v.1.15,2013-02-23 09:31:00,
2013-02-23 04:36:00,35.9,32.7,30.06,ENE,74,0.0,0.0,88,0.00,,,0.00,Wunderground v.1.15,2013-02-23 09:36:00,
2013-02-23 04:41:00,35.9,32.7,30.06,ENE,74,0.0,0.0,88,0.00,,,0.00,Wunderground v.1.15,2013-02-23 09:41:00,
2013-02-23 04:51:00,36.0,32.8,30.05,ENE,74,0.0,2.0,88,0.00,,,0.00,Wunderground v.1.15,2013-02-23 09:51:00,
2013-02-23 04:56:00,36.0,32.8,30.05,ENE,74,0.0,2.0,88,0.00,,,0.00,Wunderground v.1.15,2013-02-23 09:56:00,
2013-02-23 05:01:00,36.2,33.0,30.05,ENE,74,0.0,0.0,88,0.00,,,0.00,Wunderground v.1.15,2013-02-23 10:01:00,
2013-02-23 05:06:00,36.2,33.0,30.05,ENE,74,0.0,0.0,88,0.00,,,0.00,Wunderground v.1.15,2013-02-23 10:06:00,
2013-02-23 05:16:00,36.2,33.0,30.05,ENE,74,0.0,0.0,88,0.00,,,0.00,Wunderground v.1.15,2013-02-23 10:16:00,
2013-02-23 05:21:00,36.3,33.1,30.05,ENE,74,0.0,0.0,88,0.00,,,0.00,Wunderground v.1.15,2013-02-23 10:21:00,
2013-02-23 05:26:00,36.3,33.4,30.05,ENE,74,0.0,0.0,89,0.00,,,0.00,Wunderground v.1.15,2013-02-23 10:26:00,
2013-02-23 05:31:00,36.5,33.6,30.04,ENE,74,0.0,0.0,89,0.00,,,0.00,Wunderground v.1.15,2013-02-23 10:31:00,
2013-02-23 05:36:00,36.5,33.6,30.04,ENE,74,0.0,1.0,89,0.00,,,0.00,Wunderground v.1.15,2013-02-23 10:36:00,
2013-02-23 05:41:00,36.5,33.6,30.04,ENE,74,0.0,0.0,89,0.00,,,0.00,Wunderground v.1.15,2013-02-23 10:41:00,
2013-02-23 05:46:00,36.6,33.7,30.04,ENE,74,0.0,0.0,89,0.00,,,0.00,Wunderground v.1.15,2013-02-23 10:46:00,
2013-02-23 05:51:00,36.6,33.7,30.04,ENE,74,0.0,0.0,89,0.00,,,0.00,Wunderground v.1.15,2013-02-23 10:51:00,
2013-02-23 06:01:00,36.8,33.9,30.04,ENE,74,0.0,0.0,89,0.00,,,0.00,Wunderground v.1.15,2013-02-23 11:01:00,
2013-02-23 06:06:00,36.9,34.0,30.04,ENE,74,0.0,0.0,89,0.00,,,0.00,Wunderground v.1.15,2013-02-23 11:06:00,
2013-02-23 06:11:00,36.9,34.0,30.04,ENE,74,0.0,0.0,89,0.00,,,0.00,Wunderground v.1.15,2013-02-23 11:11:00,
2013-02-23 06:16:00,37.0,34.1,30.03,ENE,74,0.0,0.0,89,0.00,,,0.00,Wunderground v.1.15,2013-02-23 11:16:00,
2013-02-23 06:21:00,37.0,34.1,30.03,ENE,74,0.0,1.0,89,0.00,,,0.00,Wunderground v.1.15,2013-02-23 11:21:00,
2013-02-23 06:26:00,37.2,34.3,30.03,ENE,74,0.0,1.0,89,0.00,,,0.00,Wunderground v.1.15,2013-02-23 11:26:00,
2013-02-23 06:36:00,37.3,34.4,30.03,ENE,74,0.0,1.0,89,0.00,,,0.00,Wunderground v.1.15,2013-02-23 11:36:00,
2013-02-23 06:41:00,37.3,34.6,30.03,ENE,74,0.0,0.0,90,0.00,,,0.00,Wunderground v.1.15,2013-02-23 11:41:00,
2013-02-23 06:46:00,37.3,34.6,30.03,ENE,74,0.0,0.0,90,0.00,,,0.00,Wunderground v.1.15,2013-02-23 11:46:00,
2013-02-23 06:51:00,37.3,34.6,30.03,ENE,74,0.0,0.0,90,0.00,,,0.00,Wunderground v.1.15,2013-02-23 11:51:00,
2013-02-23 06:56:00,37.3,34.6,30.03,ENE,74,0.0,0.0,90,0.00,,,0.00,Wunderground v.1.15,2013-02-23 11:56:00,
2013-02-23 07:01:00,37.3,34.6,30.02,ENE,74,0.0,1.0,90,0.00,,,0.00,Wunderground v.1.15,2013-02-23 12:01:00,
2013-02-23 07:11:00,37.5,34.8,30.02,ENE,74,0.0,0.0,90,0.00,,,0.00,Wunderground v.1.15,2013-02-23 12:11:00,
2013-02-23 07:16:00,37.6,34.9,30.03,ENE,74,0.0,0.0,90,0.00,,,0.00,Wunderground v.1.15,2013-02-23 12:16:00,
2013-02-23 07:21:00,37.6,34.9,30.03,East,89,0.0,2.0,90,0.00,,,0.00,Wunderground v.1.15,2013-02-23 12:21:00,
2013-02-23 07:26:00,37.6,34.9,30.03,East,89,0.0,2.0,90,0.00,,,0.00,Wunderground v.1.15,2013-02-23 12:26:00,
2013-02-23 07:31:00,37.6,34.9,30.02,East,89,0.0,0.0,90,0.00,,,0.00,Wunderground v.1.15,2013-02-23 12:31:00,
2013-02-23 07:36:00,37.8,35.1,30.02,East,89,0.0,0.0,90,0.00,,,0.00,Wunderground v.1.15,2013-02-23 12:36:00,
2013-02-23 07:46:00,37.9,35.2,30.01,East,89,0.0,0.0,90,0.00,,,0.00,Wunderground v.1.15,2013-02-23 12:46:00,
2013-02-23 07:51:00,38.0,35.3,30.01,East,89,0.0,0.0,90,0.00,,,0.00,Wunderground v.1.15,2013-02-23 12:51:00,
2013-02-23 07:56:00,38.2,35.8,30.01,East,89,0.0,0.0,91,0.00,,,0.00,Wunderground v.1.15,2013-02-23 12:56:00,
2013-02-23 08:01:00,38.3,35.9,30.02,East,88,0.0,0.0,91,0.00,,,0.00,Wunderground v.1.15,2013-02-23 13:01:00,
2013-02-23 08:11:00,38.5,36.1,30.02,East,89,0.0,0.0,91,0.00,,,0.00,Wunderground v.1.15,2013-02-23 13:11:00,
2013-02-23 08:21:00,38.9,36.5,30.01,East,89,0.0,0.0,91,0.00,,,0.00,Wunderground v.1.15,2013-02-23 13:21:00,
2013-02-23 08:26:00,38.9,36.5,30.01,East,81,0.0,0.0,91,0.00,,,0.00,Wunderground v.1.15,2013-02-23 13:26:00,
2013-02-23 08:31:00,39.2,36.8,30.00,East,82,1.0,1.0,91,0.00,,,0.00,Wunderground v.1.15,2013-02-23 13:31:00,
2013-02-23 08:36:00,39.3,36.9,30.00,East,82,0.0,1.0,91,0.00,,,0.00,Wunderground v.1.15,2013-02-23 13:36:00,
2013-02-23 08:41:00,39.5,37.1,30.00,East,82,0.0,0.0,91,0.00,,,0.00,Wunderground v.1.15,2013-02-23 13:41:00,
2013-02-23 08:46:00,39.5,37.1,29.99,East,82,0.0,0.0,91,0.00,,,0.00,Wunderground v.1.15,2013-02-23 13:46:00,
2013-02-23 08:51:00,39.6,37.2,29.99,East,82,0.0,0.0,91,0.00,,,0.00,Wunderground v.1.15,2013-02-23 13:51:00,
2013-02-23 09:01:00,39.9,37.5,29.99,East,82,0.0,0.0,91,0.00,,,0.00,Wunderground v.1.15,2013-02-23 14:01:00,
2013-02-23 09:06:00,40.2,37.8,29.99,East,82,0.0,0.0,91,0.00,,,0.00,Wunderground v.1.15,2013-02-23 14:06:00,
2013-02-23 09:11:00,40.3,37.9,29.99,East,82,0.0,0.0,91,0.00,,,0.00,Wunderground v.1.15,2013-02-23 14:11:00,
2013-02-23 09:16:00,40.5,38.1,29.99,East,82,0.0,0.0,91,0.00,,,0.00,Wunderground v.1.15,2013-02-23 14:16:00,
2013-02-23 09:26:00,40.6,38.5,29.99,ENE,61,0.0,1.0,92,0.00,,,0.00,Wunderground v.1.15,2013-02-23 14:26:00,
2013-02-23 09:31:00,40.8,38.7,29.97,East,96,0.0,1.0,92,0.00,,,0.00,Wunderground v.1.15,2013-02-23 14:31:00,
2013-02-23 09:41:00,40.9,38.8,29.97,East,96,0.0,0.0,92,0.00,,,0.00,Wunderground v.1.15,2013-02-23 14:41:00,
2013-02-23 09:46:00,41.1,39.0,29.97,East,96,0.0,0.0,92,0.00,,,0.00,Wunderground v.1.15,2013-02-23 14:46:00,
2013-02-23 09:51:00,41.2,39.1,29.97,East,96,0.0,0.0,92,0.00,,,0.00,Wunderground v.1.15,2013-02-23 14:51:00,
2013-02-23 09:56:00,41.3,39.2,29.97,East,96,0.0,0.0,92,0.00,,,0.00,Wunderground v.1.15,2013-02-23 14:56:00,
2013-02-23 10:01:00,41.5,39.3,29.97,East,96,0.0,0.0,92,0.00,,,0.00,Wunderground v.1.15,2013-02-23 15:01:00,
2013-02-23 10:06:00,41.6,39.4,29.97,East,96,0.0,0.0,92,0.00,,,0.00,Wunderground v.1.15,2013-02-23 15:06:00,
2013-02-23 10:11:00,41.8,39.6,29.97,East,96,0.0,0.0,92,0.00,,,0.00,Wunderground v.1.15,2013-02-23 15:11:00,
2013-02-23 10:21:00,42.2,40.0,29.95,East,96,0.0,0.0,92,0.00,,,0.00,Wunderground v.1.15,2013-02-23 15:21:00,
2013-02-23 10:26:00,42.3,40.1,29.95,East,96,0.0,0.0,92,0.00,,,0.00,Wunderground v.1.15,2013-02-23 15:26:00,
2013-02-23 10:36:00,42.6,40.4,29.96,East,96,0.0,0.0,92,0.00,,,0.00,Wunderground v.1.15,2013-02-23 15:36:00,
2013-02-23 10:41:00,42.8,40.6,29.96,East,96,0.0,0.0,92,0.00,,,0.00,Wunderground v.1.15,2013-02-23 15:41:00,
2013-02-23 10:46:00,42.9,40.7,29.94,East,96,0.0,1.0,92,0.00,,,0.00,Wunderground v.1.15,2013-02-23 15:46:00,
2013-02-23 10:51:00,43.1,40.9,29.94,East,96,0.0,1.0,92,0.00,,,0.00,Wunderground v.1.15,2013-02-23 15:51:00,
2013-02-23 10:56:00,43.3,41.1,29.94,East,96,0.0,1.0,92,0.00,,,0.00,Wunderground v.1.15,2013-02-23 15:56:00,
2013-02-23 11:06:00,43.6,41.4,29.94,ENE,58,1.0,1.0,92,0.00,,,0.00,Wunderground v.1.15,2013-02-23 16:06:00,
2013-02-23 11:11:00,43.8,41.6,29.94,ENE,57,1.0,1.0,92,0.00,,,0.00,Wunderground v.1.15,2013-02-23 16:11:00,
2013-02-23 11:16:00,43.9,41.7,29.92,ENE,74,1.0,1.0,92,0.00,,,0.00,Wunderground v.1.15,2013-02-23 16:16:00,
2013-02-23 11:21:00,44.2,42.0,29.92,ENE,74,0.0,1.0,92,0.00,,,0.00,Wunderground v.1.15,2013-02-23 16:21:00,
2013-02-23 11:26:00,44.3,42.4,29.92,ESE,105,0.0,1.0,93,0.00,,,0.00,Wunderground v.1.15,2013-02-23 16:26:00,
2013-02-23 11:31:00,44.6,42.7,29.92,ESE,104,0.0,2.0,93,0.00,,,0.00,Wunderground v.1.15,2013-02-23 16:31:00,
2013-02-23 11:36:00,44.6,42.4,29.92,ESE,105,0.0,2.0,92,0.00,,,0.00,Wunderground v.1.15,2013-02-23 16:36:00,
2013-02-23 11:46:00,44.9,43.0,29.92,ESE,104,0.0,0.0,93,0.00,,,0.00,Wunderground v.1.15,2013-02-23 16:46:00,
2013-02-23 11:51:00,44.9,43.0,29.92,ESE,104,0.0,0.0,93,0.00,,,0.00,Wunderground v.1.15,2013-02-23 16:51:00,
2013-02-23 12:01:00,45.1,43.2,29.91,ESE,105,1.0,2.0,93,0.00,,,0.00,Wunderground v.1.15,2013-02-23 17:01:00,
2013-02-23 12:06:00,45.2,43.3,29.91,ESE,104,1.0,2.0,93,0.00,,,0.00,Wunderground v.1.15,2013-02-23 17:06:00,
2013-02-23 12:11:00,45.5,43.6,29.91,ESE,104,0.0,0.0,93,0.00,,,0.00,Wunderground v.1.15,2013-02-23 17:11:00,
2013-02-23 12:16:00,45.7,43.8,29.91,ESE,104,0.0,0.0,93,0.00,,,0.00,Wunderground v.1.15,2013-02-23 17:16:00,
2013-02-23 12:21:00,45.8,43.9,29.91,ESE,104,0.0,0.0,93,0.00,,,0.01,Wunderground v.1.15,2013-02-23 17:21:00,
2013-02-23 12:26:00,46.0,44.1,29.91,ESE,104,0.0,1.0,93,0.00,,,0.01,Wunderground v.1.15,2013-02-23 17:26:00,
2013-02-23 12:31:00,46.2,44.3,29.89,East,90,0.0,0.0,93,0.00,,,0.01,Wunderground v.1.15,2013-02-23 17:31:00,
2013-02-23 12:36:00,46.2,44.3,29.89,East,94,1.0,1.0,93,0.00,,,0.01,Wunderground v.1.15,2013-02-23 17:36:00,
2013-02-23 12:46:00,46.2,44.3,29.87,SSE,161,1.0,1.0,93,0.00,,,0.01,Wunderground v.1.15,2013-02-23 17:46:00,
2013-02-23 12:56:00,46.4,44.5,29.87,East,101,0.0,1.0,93,0.00,,,0.01,Wunderground v.1.15,2013-02-23 17:56:00,
2013-02-23 13:01:00,46.4,44.5,29.86,ENE,72,1.0,1.0,93,0.00,,,0.01,Wunderground v.1.15,2013-02-23 18:01:00,
2013-02-23 13:06:00,46.4,44.5,29.86,East,80,1.0,3.0,93,0.00,,,0.01,Wunderground v.1.15,2013-02-23 18:06:00,
2013-02-23 13:11:00,46.2,44.3,29.86,East,86,1.0,1.0,93,0.00,,,0.01,Wunderground v.1.15,2013-02-23 18:11:00,
2013-02-23 13:16:00,46.2,44.3,29.85,NNE,19,1.0,1.0,93,0.00,,,0.01,Wunderground v.1.15,2013-02-23 18:16:00,
2013-02-23 13:26:00,46.1,44.2,29.85,ENE,65,1.0,1.0,93,0.00,,,0.01,Wunderground v.1.15,2013-02-23 18:26:00,
2013-02-23 13:36:00,46.1,44.2,29.85,ENE,71,0.0,1.0,93,0.00,,,0.01,Wunderground v.1.15,2013-02-23 18:36:00,
2013-02-23 13:41:00,46.2,44.3,29.85,ENE,71,0.0,1.0,93,0.00,,,0.01,Wunderground v.1.15,2013-02-23 18:41:00,
2013-02-23 13:46:00,46.2,44.3,29.85,ENE,71,0.0,1.0,93,0.00,,,0.01,Wunderground v.1.15,2013-02-23 18:46:00,
2013-02-23 13:51:00,46.1,44.2,29.85,ENE,75,1.0,1.0,93,0.00,,,0.01,Wunderground v.1.15,2013-02-23 18:51:00,
2013-02-23 13:56:00,46.1,44.2,29.85,NNE,32,1.0,1.0,93,0.00,,,0.01,Wunderground v.1.15,2013-02-23 18:56:00,
2013-02-23 14:01:00,46.1,44.2,29.85,NNE,32,0.0,0.0,93,0.00,,,0.01,Wunderground v.1.15,2013-02-23 19:01:00,
2013-02-23 14:06:00,46.1,44.2,29.85,ENE,77,0.0,0.0,93,0.00,,,0.01,Wunderground v.1.15,2013-02-23 19:06:00,
2013-02-23 14:16:00,46.2,44.3,29.84,NNE,15,0.0,1.0,93,0.00,,,0.01,Wunderground v.1.15,2013-02-23 19:16:00,
2013-02-23 14:21:00,46.1,44.2,29.84,East,80,0.0,0.0,93,0.00,,,0.01,Wunderground v.1.15,2013-02-23 19:21:00,
2013-02-23 14:26:00,46.2,44.3,29.84,East,80,0.0,0.0,93,0.00,,,0.01,Wunderground v.1.15,2013-02-23 19:26:00,
2013-02-23 14:36:00,46.4,44.5,29.83,East,80,0.0,1.0,93,0.00,,,0.02,Wunderground v.1.15,2013-02-23 19:36:00,
2013-02-23 14:41:00,46.4,44.5,29.83,NNE,26,0.0,0.0,93,0.00,,,0.02,Wunderground v.1.15,2013-02-23 19:41:00,
2013-02-23 14:46:00,46.4,44.5,29.82,NNE,26,0.0,0.0,93,0.04,,,0.03,Wunderground v.1.15,2013-02-23 19:46:00,
2013-02-23 14:51:00,46.4,44.8,29.82,ENE,76,1.0,1.0,94,0.09,,,0.04,Wunderground v.1.15,2013-02-23 19:51:00,
2013-02-23 15:01:00,46.7,45.1,29.83,NNE,21,0.0,0.0,94,0.06,,,0.04,Wunderground v.1.15,2013-02-23 20:01:00,
2013-02-23 15:06:00,46.5,44.6,29.83,NNE,22,0.0,1.0,93,0.04,,,0.04,Wunderground v.1.15,2013-02-23 20:06:00,
2013-02-23 15:11:00,46.4,44.5,29.83,NNE,22,1.0,1.0,93,0.00,,,0.04,Wunderground v.1.15,2013-02-23 20:11:00,
2013-02-23 15:16:00,46.2,44.3,29.82,NNE,21,1.0,1.0,93,0.00,,,0.04,Wunderground v.1.15,2013-02-23 20:16:00,
2013-02-23 15:21:00,46.2,44.3,29.82,NNE,21,0.0,1.0,93,0.00,,,0.04,Wunderground v.1.15,2013-02-23 20:21:00,
2013-02-23 15:26:00,46.1,44.2,29.82,NNE,21,1.0,1.0,93,0.00,,,0.04,Wunderground v.1.15,2013-02-23 20:26:00,
2013-02-23 15:31:00,46.0,44.1,29.82,NNE,21,1.0,1.0,93,0.00,,,0.04,Wunderground v.1.15,2013-02-23 20:31:00,
2013-02-23 15:36:00,46.0,44.1,29.82,NNE,21,1.0,2.0,93,0.00,,,0.04,Wunderground v.1.15,2013-02-23 20:36:00,
2013-02-23 15:46:00,45.8,44.2,29.82,NNE,22,1.0,1.0,94,0.00,,,0.04,Wunderground v.1.15,2013-02-23 20:46:00,
2013-02-23 15:51:00,45.7,43.8,29.82,NNE,21,1.0,1.0,93,0.00,,,0.04,Wunderground v.1.15,2013-02-23 20:51:00,
2013-02-23 15:56:00,45.7,44.1,29.82,NNE,22,1.0,1.0,94,0.00,,,0.05,Wunderground v.1.15,2013-02-23 20:56:00,
2013-02-23 16:01:00,45.4,43.5,29.80,NNE,22,1.0,2.0,93,0.00,,,0.05,Wunderground v.1.15,2013-02-23 21:01:00,
2013-02-23 16:06:00,45.2,43.3,29.80,NNE,21,1.0,3.0,93,0.00,,,0.05,Wunderground v.1.15,2013-02-23 21:06:00,
2013-02-23 16:11:00,45.1,43.2,29.80,NNE,21,1.0,1.0,93,0.00,,,0.05,Wunderground v.1.15,2013-02-23 21:11:00,
2013-02-23 16:16:00,45.1,43.5,29.80,NNE,23,1.0,1.0,94,0.00,,,0.05,Wunderground v.1.15,2013-02-23 21:16:00,
2013-02-23 16:21:00,44.9,43.3,29.80,NNE,23,1.0,1.0,94,0.00,,,0.05,Wunderground v.1.15,2013-02-23 21:21:00,
2013-02-23 16:31:00,44.9,43.3,29.80,ENE,69,1.0,1.0,94,0.00,,,0.05,Wunderground v.1.15,2013-02-23 21:31:00,
2013-02-23 16:36:00,44.9,43.3,29.80,ENE,75,1.0,1.0,94,0.00,,,0.05,Wunderground v.1.15,2013-02-23 21:36:00,
2013-02-23 16:41:00,44.8,43.2,29.80,NNE,23,1.0,1.0,94,0.00,,,0.05,Wunderground v.1.15,2013-02-23 21:41:00,
2013-02-23 16:46:00,44.8,43.2,29.80,NE,37,1.0,1.0,94,0.00,,,0.05,Wunderground v.1.15,2013-02-23 21:46:00,
2013-02-23 16:51:00,44.8,43.2,29.80,ENE,67,1.0,5.0,94,0.00,,,0.05,Wunderground v.1.15,2013-02-23 21:51:00,
2013-02-23 16:56:00,44.8,43.2,29.80,ENE,65,2.0,5.0,94,0.00,,,0.05,Wunderground v.1.15,2013-02-23 21:56:00,
2013-02-23 17:01:00,44.8,43.2,29.78,NE,50,2.0,2.0,94,0.00,,,0.05,Wunderground v.1.15,2013-02-23 22:01:00,
2013-02-23 17:06:00,44.6,43.0,29.78,East,89,2.0,4.0,94,0.00,,,0.05,Wunderground v.1.15,2013-02-23 22:06:00,
2013-02-23 17:16:00,44.3,42.7,29.78,NE,50,3.0,3.0,94,0.00,,,0.05,Wunderground v.1.15,2013-02-23 22:16:00,
2013-02-23 17:21:00,44.2,42.6,29.78,ESE,116,3.0,3.0,94,0.00,,,0.05,Wunderground v.1.15,2013-02-23 22:21:00,
2013-02-23 17:26:00,44.1,42.5,29.78,ESE,107,3.0,5.0,94,0.00,,,0.05,Wunderground v.1.15,2013-02-23 22:26:00,
2013-02-23 17:31:00,43.9,42.3,29.77,East,79,3.0,3.0,94,0.00,,,0.05,Wunderground v.1.15,2013-02-23 22:31:00,
2013-02-23 17:36:00,43.8,42.2,29.77,ENE,77,2.0,3.0,94,0.00,,,0.05,Wunderground v.1.15,2013-02-23 22:36:00,
2013-02-23 17:41:00,43.6,42.0,29.77,NE,55,3.0,3.0,94,0.00,,,0.05,Wunderground v.1.15,2013-02-23 22:41:00,
2013-02-23 17:46:00,43.5,41.9,29.77,ENE,75,3.0,3.0,94,0.00,,,0.05,Wunderground v.1.15,2013-02-23 22:46:00,
2013-02-23 17:51:00,43.3,41.7,29.77,ENE,78,3.0,3.0,94,0.00,,,0.05,Wunderground v.1.15,2013-02-23 22:51:00,
2013-02-23 18:01:00,43.2,41.6,29.78,NE,38,2.0,2.0,94,0.00,,,0.05,Wunderground v.1.15,2013-02-23 23:01:00,
2013-02-23 18:11:00,42.9,41.3,29.78,ENE,61,3.0,4.0,94,0.00,,,0.05,Wunderground v.1.15,2013-02-23 23:11:00,
2013-02-23 18:16:00,42.9,41.3,29.79,East,81,2.0,4.0,94,0.00,,,0.05,Wunderground v.1.15,2013-02-23 23:16:00,
2013-02-23 18:21:00,42.8,41.5,29.79,ENE,76,2.0,2.0,95,0.00,,,0.05,Wunderground v.1.15,2013-02-23 23:21:00,
2013-02-23 18:26:00,42.6,41.0,29.79,East,99,2.0,2.0,94,0.00,,,0.05,Wunderground v.1.15,2013-02-23 23:26:00,
2013-02-23 18:31:00,42.5,40.9,29.79,NNE,22,2.0,3.0,94,0.00,,,0.05,Wunderground v.1.15,2013-02-23 23:31:00,
2013-02-23 18:36:00,42.3,40.7,29.79,ENE,76,3.0,3.0,94,0.00,,,0.05,Wunderground v.1.15,2013-02-23 23:36:00,
2013-02-23 18:41:00,42.2,40.6,29.79,NE,48,2.0,5.0,94,0.00,,,0.05,Wunderground v.1.15,2013-02-23 23:41:00,
2013-02-23 18:51:00,41.6,40.0,29.79,NE,36,3.0,7.0,94,0.00,,,0.05,Wunderground v.1.15,2013-02-23 23:51:00,
2013-02-23 18:56:00,41.3,39.7,29.79,ENE,63,4.0,7.0,94,0.00,,,0.05,Wunderground v.1.15,2013-02-23 23:56:00,
2013-02-23 19:01:00,41.2,39.6,29.79,East,91,3.0,3.0,94,0.00,,,0.05,Wunderground v.1.15,2013-02-24 00:01:00,
2013-02-23 19:06:00,40.9,39.3,29.79,ENE,71,2.0,3.0,94,0.00,,,0.05,Wunderground v.1.15,2013-02-24 00:06:00,
2013-02-23 19:11:00,40.8,39.2,29.79,East,98,3.0,9.0,94,0.00,,,0.05,Wunderground v.1.15,2013-02-24 00:11:00,
2013-02-23 19:16:00,40.5,38.9,29.78,ENE,72,4.0,9.0,94,0.00,,,0.05,Wunderground v.1.15,2013-02-24 00:16:00,
2013-02-23 19:21:00,40.3,38.7,29.78,ESE,113,3.0,5.0,94,0.00,,,0.05,Wunderground v.1.15,2013-02-24 00:21:00,
2013-02-23 19:26:00,40.2,38.6,29.78,ENE,72,3.0,5.0,94,0.00,,,0.05,Wunderground v.1.15,2013-02-24 00:26:00,
2013-02-23 19:36:00,39.9,38.3,29.77,East,81,3.0,4.0,94,0.00,,,0.05,Wunderground v.1.15,2013-02-24 00:36:00,
2013-02-23 19:46:00,39.8,38.2,29.77,East,83,3.0,4.0,94,0.00,,,0.05,Wunderground v.1.15,2013-02-24 00:46:00,
2013-02-23 19:51:00,39.8,38.2,29.77,ENE,63,3.0,3.0,94,0.00,,,0.05,Wunderground v.1.15,2013-02-24 00:51:00,
2013-02-23 19:56:00,39.8,38.2,29.77,NE,37,3.0,3.0,94,0.00,,,0.05,Wunderground v.1.15,2013-02-24 00:56:00,
2013-02-23 20:01:00,39.6,38.0,29.77,East,100,3.0,3.0,94,0.00,,,0.05,Wunderground v.1.15,2013-02-24 01:01:00,
2013-02-23 20:06:00,39.6,38.0,29.77,ESE,105,2.0,7.0,94,0.00,,,0.05,Wunderground v.1.15,2013-02-24 01:06:00,
2013-02-23 20:16:00,39.6,38.0,29.77,ENE,61,3.0,4.0,94,0.00,,,0.05,Wunderground v.1.15,2013-02-24 01:16:00,
2013-02-23 20:21:00,39.8,38.2,29.77,East,98,2.0,2.0,94,0.00,,,0.05,Wunderground v.1.15,2013-02-24 01:21:00,
2013-02-23 20:26:00,39.8,38.2,29.77,ENE,78,2.0,2.0,94,0.00,,,0.05,Wunderground v.1.15,2013-02-24 01:26:00,
2013-02-23 20:31:00,39.6,38.0,29.77,ENE,58,2.0,2.0,94,0.00,,,0.05,Wunderground v.1.15,2013-02-24 01:31:00,
2013-02-23 20:36:00,39.6,38.0,29.77,ENE,76,2.0,5.0,94,0.00,,,0.05,Wunderground v.1.15,2013-02-24 01:36:00,
2013-02-23 20:41:00,39.5,37.9,29.77,ENE,62,2.0,2.0,94,0.00,,,0.05,Wunderground v.1.15,2013-02-24 01:41:00,
2013-02-23 20:46:00,39.5,37.9,29.76,ESE,103,3.0,3.0,94,0.00,,,0.05,Wunderground v.1.15,2013-02-24 01:46:00,
2013-02-23 20:56:00,39.3,37.7,29.76,ENE,61,2.0,6.0,94,0.00,,,0.05,Wunderground v.1.15,2013-02-24 01:56:00,
2013-02-23 21:01:00,39.3,37.7,29.75,ENE,71,2.0,2.0,94,0.00,,,0.05,Wunderground v.1.15,2013-02-24 02:01:00,
2013-02-23 21:11:00,39.3,37.7,29.75,ENE,68,2.0,2.0,94,0.00,,,0.05,Wunderground v.1.15,2013-02-24 02:11:00,
2013-02-23 21:16:00,39.3,37.7,29.74,ENE,65,2.0,2.0,94,0.00,,,0.05,Wunderground v.1.15,2013-02-24 02:16:00,
2013-02-23 21:21:00,39.3,37.7,29.74,ENE,74,2.0,2.0,94,0.00,,,0.05,Wunderground v.1.15,2013-02-24 02:21:00,
2013-02-23 21:26:00,39.3,37.7,29.74,East,86,2.0,2.0,94,0.00,,,0.05,Wunderground v.1.15,2013-02-24 02:26:00,
2013-02-23 21:31:00,39.3,37.7,29.74,NE,52,2.0,4.0,94,0.00,,,0.05,Wunderground v.1.15,2013-02-24 02:31:00,
2013-02-23 21:36:00,39.3,37.7,29.74,NNE,21,1.0,4.0,94,0.00,,,0.05,Wunderground v.1.15,2013-02-24 02:36:00,
2013-02-23 21:41:00,39.3,37.7,29.74,ENE,63,1.0,1.0,94,0.00,,,0.05,Wunderground v.1.15,2013-02-24 02:41:00,
2013-02-23 21:51:00,39.3,37.7,29.75,NE,56,2.0,2.0,94,0.00,,,0.05,Wunderground v.1.15,2013-02-24 02:51:00,
2013-02-23 21:56:00,39.3,37.7,29.75,ENE,67,2.0,4.0,94,0.00,,,0.05,Wunderground v.1.15,2013-02-24 02:56:00,
2013-02-23 22:06:00,39.2,37.6,29.74,NNE,17,1.0,2.0,94,0.00,,,0.05,Wunderground v.1.15,2013-02-24 03:06:00,
2013-02-23 22:11:00,39.2,37.6,29.74,NE,49,2.0,2.0,94,0.00,,,0.05,Wunderground v.1.15,2013-02-24 03:11:00,
2013-02-23 22:16:00,39.1,37.5,29.74,ENE,67,1.0,2.0,94,0.00,,,0.05,Wunderground v.1.15,2013-02-24 03:16:00,
2013-02-23 22:21:00,39.1,37.5,29.74,NNE,17,1.0,1.0,94,0.00,,,0.05,Wunderground v.1.15,2013-02-24 03:21:00,
2013-02-23 22:31:00,38.9,37.3,29.73,ENE,75,1.0,1.0,94,0.00,,,0.05,Wunderground v.1.15,2013-02-24 03:31:00,
2013-02-23 22:36:00,38.8,37.2,29.73,NNE,17,1.0,1.0,94,0.00,,,0.05,Wunderground v.1.15,2013-02-24 03:36:00,
2013-02-23 22:41:00,38.6,37.0,29.73,East,79,2.0,2.0,94,0.00,,,0.05,Wunderground v.1.15,2013-02-24 03:41:00,
2013-02-23 22:46:00,38.5,36.9,29.73,North,11,2.0,2.0,94,0.00,,,0.05,Wunderground v.1.15,2013-02-24 03:46:00,
2013-02-23 22:51:00,38.5,36.9,29.73,NNE,22,1.0,2.0,94,0.00,,,0.05,Wunderground v.1.15,2013-02-24 03:51:00,
2013-02-23 22:56:00,38.3,36.7,29.73,NNE,23,1.0,2.0,94,0.00,,,0.05,Wunderground v.1.15,2013-02-24 03:56:00,
2013-02-23 23:01:00,38.2,36.6,29.72,ENE,71,1.0,2.0,94,0.00,,,0.05,Wunderground v.1.15,2013-02-24 04:01:00,
2013-02-23 23:11:00,38.0,36.4,29.72,NE,39,1.0,2.0,94,0.00,,,0.05,Wunderground v.1.15,2013-02-24 04:11:00,
2013-02-23 23:21:00,37.8,36.2,29.71,NNE,22,1.0,1.0,94,0.00,,,0.05,Wunderground v.1.15,2013-02-24 04:21:00,
2013-02-23 23:26:00,37.6,36.0,29.71,NNE,21,1.0,1.0,94,0.00,,,0.05,Wunderground v.1.15,2013-02-24 04:26:00,
2013-02-23 23:31:00,37.6,36.0,29.71,NE,41,1.0,1.0,94,0.00,,,0.05,Wunderground v.1.15,2013-02-24 04:31:00,
2013-02-23 23:36:00,37.5,35.9,29.71,NE,34,1.0,2.0,94,0.00,,,0.05,Wunderground v.1.15,2013-02-24 04:36:00,
2013-02-23 23:41:00,37.5,35.9,29.71,East,86,1.0,1.0,94,0.00,,,0.05,Wunderground v.1.15,2013-02-24 04:41:00,
2013-02-23 23:46:00,37.5,35.9,29.71,East,85,1.0,2.0,94,0.00,,,0.05,Wunderground v.1.15,2013-02-24 04:46:00,
2013-02-23 23:51:00,37.5,35.9,29.71,ENE,77,1.0,1.0,94,0.00,,,0.05,Wunderground v.1.15,2013-02-24 04:51:00,